Weather in Diring

Russia / Sakha (Yakutia) Republic     61°50′44″N   132°07′30″E
temp.,
°C
wind,
m/s
gust,
m/s
humid.,
%
clouds,
%
prec.,
mm/h
press.,
hPa
HPBL,
m
7 may, fri
fri700:000ese2693100 0.0 1011144
03:00−1e2496100 0.0 101278
06:00+2e2687100 0.0 1012239
09:00+5ese3672100 0.0 1012765
12:00+8e3466100 0.1 10121293
15:00+9ese1357100 0.1 10111378
18:00+8n0072100 0.1 101214
21:00+4nnw2283100 0.1 101316
8 may, sat
sat800:00+2ene118771 0.0 101410
03:00+1nne229082 0.0 101414
06:00+3n258391 0.0 1014142
09:00+7n246393 0.0 1015523
12:00+10n235299 0.0 10141243
15:00+11nnw234668 0.0 10131697
18:00+10nw2459100 0.0 1013121
21:00+5nw268173 0.0 1014111
9 may, sun
sun900:00+3n268481 0.0 1015120
03:00+1nnw249181 0.0 101578
06:00+3nnw2382100 0.0 1016151
09:00+7nw2266100 0.0 1015582
12:00+10wnw2250100 0.0 10141165
15:00+11wnw2245100 0.0 10141459
18:00+10nw235198 0.0 1014689
21:00+5wsw117378 0.0 101516
10 may, mon
mon1000:00+3w227846 0.0 101523
03:00+1w228733 0.0 101521
06:00+3wnw237959 0.0 1015171
09:00+8nw225863 0.0 1015923
12:00+9w1248100 0.1 10141469
15:00+11wnw3338100 0.1 10132003
18:00+10nw334394 0.0 10131677
21:00+5nw3673100 0.0 1014122
11 may, tue
tue1100:00+3nw2384100 0.0 101571
03:00+2wnw2483100 0.0 1015101
06:00+3w2375100 0.0 1015333
09:00+6w3456100 0.1 10151492
12:00+7wsw3549100 0.1 10141554
15:00+8wnw4446100 0.2 10131875
18:00+6wnw345999 0.1 10141130
21:00+2wnw228154 0.2 101428